HK6RM-18 Weather Reports


time (UTC)temp
C
wind
direction
speed
KPH
gust
KPH
rain 1hr
cm
rain 24hr
cm
rain mn
cm
humidity
%
barometer
mb
20260507165954 23 278 9.7 4.8 0.00 0.00 0.00 74 1013.0
20260507164453 23 300 8.0 0.0 0.00 0.00 0.00 74 1014.0
20260507162951 23 300 9.7 0.0 0.00 0.00 0.00 74 1015.0
20260507161451 24 300 9.7 0.0 0.00 0.00 0.00 73 1015.0
20260507155951 22 290 9.7 0.0 0.00 0.00 0.00 80 1015.0
20260507154450 22 290 9.7 0.0 0.00 0.00 0.00 82 1015.0
20260507152949 21 290 9.7 0.0 0.00 0.00 0.00 75 1016.0
20260507151448 21 290 9.7 0.0 0.00 0.00 0.00 73 1016.0
20260507145945 21 290 9.7 0.0 0.00 0.00 0.00 70 1016.0
20260507144445 21 290 9.7 0.0 0.00 0.00 0.00 70 1016.0
20260507142943 21 290 9.7 0.0 0.00 0.00 0.00 70 1016.0
20260507141440 21 290 9.7 0.0 0.00 0.00 0.00 69 1016.0
20260507135939 22 0 3.2 0.0 0.00 0.00 0.00 68 1016.0
20260507134437 22 0 3.2 0.0 0.00 0.00 0.00 69 1016.0
20260507132935 17 305 1.6 1.6 0.00 0.00 0.00 73 1016.0
20260507131434 18 305 1.6 1.6 0.00 0.00 0.00 73 1016.0
20260507125934 18 305 3.2 1.6 0.00 0.00 0.00 73 1016.0
20260507124433 15 90 6.4 0.0 0.00 0.00 0.00 82 1016.0
20260507122931 15 90 6.4 0.0 0.00 0.00 0.00 82 1016.0
20260507121431 16 90 6.4 0.0 0.00 0.00 0.00 82 1016.0
20260507115930 16 90 6.4 0.0 0.00 0.00 0.00 82 1016.0
20260507114430 16 90 6.4 0.0 0.00 0.00 0.00 82 1016.0
20260507112927 13 90 6.4 0.0 0.00 0.00 0.00 78 1016.0
20260507111427 14 90 6.4 0.0 0.00 0.00 0.00 78 1016.0
20260507105925 13 99 6.4 1.6 0.00 0.00 0.00 77 1016.0
20260507104424 13 99 6.4 3.2 0.00 0.00 0.00 77 1016.0
20260507102924 13 99 8.0 1.6 0.00 0.00 0.00 76 1016.0
20260507101422 13 99 8.0 3.2 0.00 0.00 0.00 76 1016.0
20260507095921 13 99 8.0 1.6 0.00 0.00 0.00 76 1016.0
20260507094419 13 99 8.0 3.2 0.00 0.00 0.00 76 1016.0
20260507092918 13 105 8.0 1.6 0.00 0.00 0.00 77 1016.0
20260507091417 13 105 8.0 1.6 0.00 0.00 0.00 78 1016.0
20260507085916 13 105 8.0 3.2 0.00 0.00 0.00 76 1016.0
20260507084415 13 103 8.0 1.6 0.00 0.00 0.00 77 1016.0
20260507082914 13 103 8.0 3.2 0.00 0.00 0.00 76 1016.0
20260507081414 13 103 8.0 1.6 0.00 0.00 0.00 78 1016.0
20260507075912 13 103 8.0 3.2 0.00 0.00 0.00 77 1016.0
20260507074411 13 101 8.0 1.6 0.00 0.00 0.00 77 1016.0
20260507072910 13 101 8.0 3.2 0.00 0.00 0.00 77 1016.0
20260507071409 13 100 6.4 0.0 0.00 0.00 0.00 77 1016.0
20260507065909 13 100 6.4 0.0 0.00 0.00 0.00 77 1016.0
20260507064407 14 100 6.4 0.0 0.00 0.00 0.00 77 1016.0
20260507062907 15 100 6.4 0.0 0.00 0.00 0.00 78 1017.0
20260507061406 13 100 8.0 0.0 0.00 0.00 0.00 78 1017.0
20260507055905 14 100 8.0 0.0 0.00 0.00 0.00 78 1017.0
20260507054405 15 100 8.0 0.0 0.00 0.00 0.00 79 1017.0
20260507052900 16 100 8.0 0.0 0.00 0.00 0.00 80 1017.0
20260507051400 13 102 8.0 1.6 0.00 0.00 0.00 75 1017.0
20260507045859 14 102 8.0 1.6 0.00 0.00 0.00 75 1017.0
20260507044356 15 102 8.0 3.2 0.00 0.00 0.00 75 1017.0
20260507042856 13 105 8.0 1.6 0.00 0.00 0.00 75 1017.0
20260507041355 14 105 8.0 3.2 0.00 0.00 0.00 75 1017.0
20260507035855 13 80 6.4 0.0 0.00 0.00 0.00 76 1017.0
20260507034354 14 80 6.4 0.0 0.00 0.00 0.00 76 1017.0
20260507032849 15 80 6.4 0.0 0.00 0.00 0.00 76 1017.0
20260507031348 15 80 6.4 0.0 0.00 0.00 0.00 76 1017.0
20260507025848 16 80 6.4 0.0 0.00 0.00 0.00 76 1017.0
20260507024347 17 80 6.4 0.0 0.00 0.00 0.00 77 1017.0
20260507022846 19 80 6.4 0.0 0.00 0.00 0.00 78 1016.0
20260507021344 20 80 6.4 0.0 0.00 0.00 0.00 81 1016.0
20260507015842 14 106 8.0 4.8 0.00 0.00 0.00 72 1016.0
20260507014340 15 106 9.7 4.8 0.00 0.00 0.00 72 1016.0
20260507012839 21 90 4.8 0.0 0.00 0.00 0.00 81 1015.0
20260507011339 21 90 4.8 0.0 0.00 0.00 0.00 81 1015.0
20260507005838 15 108 8.0 1.6 0.00 0.00 0.00 72 1015.0
20260507004337 15 108 9.7 3.2 0.00 0.00 0.00 72 1015.0
20260507002836 15 290 8.0 0.0 0.00 0.00 0.00 71 1014.0
20260507001334 16 290 8.0 0.0 0.00 0.00 0.00 71 1014.0
20260506235834 16 290 8.0 0.0 0.00 0.00 0.00 71 1014.0
20260506234333 17 290 8.0 0.0 0.00 0.00 0.00 71 1013.0
20260506232833 17 290 8.0 0.0 0.00 0.00 0.00 71 1012.0
20260506231329 18 290 8.0 0.0 0.00 0.00 0.00 71 1012.0
20260506225828 18 290 8.0 0.0 0.00 0.00 0.00 71 1012.0
20260506224328 19 290 8.0 0.0 0.00 0.00 0.00 71 1012.0
20260506222827 20 290 8.0 0.0 0.00 0.00 0.00 71 1011.0
20260506221326 20 290 8.0 0.0 0.00 0.00 0.00 70 1010.0
20260506215825 21 290 8.0 0.0 0.00 0.00 0.00 70 1010.0
20260506214324 22 290 8.0 0.0 0.00 0.00 0.00 70 1010.0
20260506212822 23 290 9.7 0.0 0.00 0.00 0.00 69 1010.0
20260506205701 22 280 12.9 0.0 0.00 0.00 0.00 69 1010.0
20260506204201 22 280 12.9 0.0 0.00 0.00 0.00 69 1010.0
20260506202659 23 280 12.9 0.0 0.00 0.00 0.00 69 1010.0
20260506201158 23 280 12.9 0.0 0.00 0.00 0.00 68 1010.0
20260506195655 24 280 12.9 0.0 0.00 0.00 0.00 68 1010.0
20260506194154 25 280 12.9 0.0 0.00 0.00 0.00 68 1010.0
20260506192653 23 280 12.9 0.0 0.00 0.00 0.00 68 1011.0
20260506191151 24 280 12.9 0.0 0.00 0.00 0.00 68 1010.0
20260506185650 25 320 12.9 0.0 0.00 0.00 0.00 68 1010.0
20260506184150 25 320 12.9 0.0 0.00 0.00 0.00 68 1011.0
20260506182649 26 320 12.9 0.0 0.00 0.00 0.00 68 1012.0
20260506181149 23 320 12.9 0.0 0.00 0.00 0.00 74 1012.0
20260506175648 23 290 12.9 0.0 0.00 0.00 0.00 76 1012.0
20260506174146 22 290 12.9 0.0 0.00 0.00 0.00 76 1012.0
20260506172646 23 290 12.9 0.0 0.00 0.00 0.00 76 1013.0
20260506171145 22 290 12.9 0.0 0.00 0.00 0.00 77 1013.0